STARLINK-2395, 47814

Orbit data source: Space-Track

STARLINK-2395, 47814 is a payload satellite owned by SpaceX/Seattle (US) in LEO that was launched on Thu, 11 Mar 2021 UTC via an FALCON 9 launch vehicle from the Air Force Eastern Test Range (AFETR). Payload-class satellites include a variety of spacecraft equipped with specific instruments for various scientific and technological missions. These include communications satellites like Starlink; space stations such as the ISS; scientific satellites like the Hubble; Earth observation satellites from companies like Planet Labs, Umbra, and HawkEye 360; GPS; miniature CubeSats for education and research; and military/defense satellites.

Loading next visibility...
Identifier
47814, 2021-018AD
Orbit
LEO
Country
Flag of USUS
Related business
Manufacturer
SpaceX/Seattle
Mission
Operational Commercial Communications
Bus & Motor
STARLINK, Unknown motor
Mass
260 kg wet, ~248 kg dry
Launch date (UTC)
2021-03-11 (5 years ago)
Launch vehicle
FALCON 9
Launch site
Air Force Eastern Test Range (AFETR)
Object type
Payload
Rocket body
Debris
Shape & HBR
Box + 1 Pan, 10.1 m
Radar Cross Section
13.562 m², Large (>1 m²)

Expand to show TLE details & history
Last TLE update: 8 hours ago

TLE from 8 hours ago
0 STARLINK-2395
1 47814U 21018AD  26035.41385572  .00012616  00000-0  43700-3 0  9990
2 47814  53.1586  37.4120 0001250  81.2264 278.8878 15.30225635271697
Epoch: 2026-02-04T09:55Z
TLE epoch observation values (Epoch: 2026-02-04T09:55:57.134Z)
Latitude
-0.00003°
Longitude
113.84313°
Altitude
475.906 km
Speed
7.629 km/s
True Right ascension
02h 29m 38s
True Declination
0° 00' 00"
Sunlit
Object was in daylight at epoch
Visualization orbit readout
Latitude
Unknown
Longitude
Unknown
Altitude
Unknown
Speed
Unknown
Apparent Right ascension
Unknown
Apparent Declination
Unknown
Sunlit
N/A
Visualization observer readout
Local Sidereal Time
20:02:59
Azimuth
Unknown
Elevation
Unknown
Doppler factor
Unknown
Orbital elements
Apogee altitude
476.252 km
Perigee altitude
474.538 km
Semi-major axis
6,853.532 km
Eccentricity
0.00013
Inclination
53.1586°
RAAN
37.412°
Arg. of periapsis
81.2264°
True anomaly
278.87365°
Mean anomaly
278.8878°
Eccentric anomaly
278.88072°
Mean motion
3.82535 °/min
Orbital period
94.11 mins
BSTAR
0.000437
Loading maneuver chart data...
Computing Atmospheric mass density...
Loading historical data...
Loading historical data...
Loading historical data...
Loading historical data...
Loading historical data...
Loading historical data...
Loading historical data...

Documentation

Showing up to 5 results
|